Regional Weather Roundup
Issued by NWS

Home | Current Version | Previous Version | Graphics & Text | Print | Product List | Glossary On
Versions: 1 2 3 4 5 6 7 8 9 10 11 12 13 14 15 16 17 18 19 20 21 22 23 24 25 26 27 28
000
ASUS45 KBOU 161410
RWRCO

WEATHER ROUNDUP FOR COLORADO
NATIONAL WEATHER SERVICE DENVER/BOULDER CO
700 AM MST SAT DEC 16 2017

NOTE: "FAIR" INDICATES FEW OR NO CLOUDS BELOW 12000 FEET WITH NO
SIGNIFICANT WEATHER AND/OR OBSTRUCTIONS TO VISIBILITY.

COZ001>005-013-030-031-161500-
...NORTHWEST COLORADO...

CITY           SKY/WX    TMP DP  RH WIND       PRES   REMARKS
CRAIG          FAIR      11   5  77 CALM      29.87F
HAYDEN         FAIR      22   9  57 E14       29.88F WCI   9
MEEKER         FAIR      20  10  65 CALM      29.86F
RABBIT EARS PA FAIR      28 -15  14 SW7       29.89F WCI  21
STEAMBOAT SPGS FAIR      11   7  84 CALM      29.87F
WALDEN         FAIR      23   3  42 S5        29.87F WCI  17
$$

COZ006>008-011-161500-
...WEST CENTRAL VALLEYS...

CITY           SKY/WX    TMP DP  RH WIND       PRES   REMARKS
GRAND JUNCTION FAIR      24   9  52 NE6       29.88F WCI  17
MONTROSE       FAIR      21   7  54 S7        29.91F WCI  12
EAGLE          FAIR       7   3  84 SE5       29.97F WCI  -2
RIFLE          FAIR      17   8  67 CALM      29.93S
DELTA          FAIR      20   5  51 CALM      29.91F
NUCLA          FAIR      21  -6  30 SE6       29.94S WCI  14
$$

COZ017>023-064>068-161500-
...SOUTHWEST COLORADO...

CITY           SKY/WX    TMP DP  RH WIND       PRES   REMARKS
DURANGO        FAIR      14  10  84 NE6       29.93S WCI   5
CORTEZ         FAIR      14   2  58 E7        29.91F WCI   4
PAGOSA SPRINGS FAIR      16   7  68 CALM      29.94S
TELLURIDE      FAIR      30   4  33 CALM      29.91F
WOLF CREEK PAS FAIR      27  -4  26 SW8       30.04F WCI  18
$$

COZ009-010-012-014-032>034-037-058>063-161500-
...CENTRAL COLORADO...

CITY           SKY/WX    TMP DP  RH WIND       PRES   REMARKS
ASPEN          FAIR      16   9  74 CALM      29.85F
BUENA VISTA    FAIR      20  11  67 NW3       29.89S
COPPER MTN     NOT AVBL
BERTHOUD PASS  CLOUDY    25  12  58 W15       29.98R WCI  12
COTTONWOOD PAS FAIR      39   1  20 E3        29.91S
GUNNISON       NOT AVBL
KREMMLING      FAIR       7   1  78 CALM      29.96F
LEADVILLE      FAIR      20   1  43 NE7       29.89F WCI  11
MONARCH PASS   FAIR      28   0  29 W21       30.08S WCI  15
SALIDA         FAIR      26   9  50 CALM      29.96R
SUNLIGHT       MOCLDY    27  -8  22 S9        29.95F WCI  17
WILKERSON PASS FAIR      32  -6  19 CALM      29.99R
$$

COZ069>075-161500-
...SAN LUIS VALLEY/SANGRE DE CRISTO MOUNTAINS...

CITY           SKY/WX    TMP DP  RH WIND       PRES   REMARKS
ALAMOSA        FAIR       1  -3  83 CALM      29.95F
DEL NORTE      FAIR      15   4  62 W12       29.94F WCI   1
LA VETA PASS   FAIR      27  -4  26 SW24        N/A  WCI  12
SAGUACHE       FAIR      19   3  49 N8        29.95F WCI   9
$$

COZ035-036-038>040-161500-
...NORTHERN COLORADO FRONT RANGE...

CITY           SKY/WX    TMP DP  RH WIND       PRES   REMARKS
DENVER INTL AP MOCLDY    38  18  44 SE6       29.77R
DMNS CITY PARK NOT AVBL
AURORA         MOCLDY    41  13  32 SE5       29.78R
FRONT RANGE AP MOCLDY    39  21  48 SE5       29.78R
ERIE MUNI ARPT FAIR      33  18  53 CALM      29.82S
BOULDER MUN AP FAIR      43  14  31 NW3       29.77R
CENTENNIAL     MOCLDY    37  17  44 CALM      29.77R
BROOMFIELD     MOCLDY    41  16  36 CALM      29.78R
FORT COLLINS   FAIR      35  21  56 NE5       29.78R WCI  31
LONGMONT       FAIR      40  19  42 NE3       29.80R
$$

COZ041-046-047-076>085-087-088-161500-
...PIKES PEAK/PALMER DIVIDE AND SOUTHERN FOOTHILLS...

CITY           SKY/WX    TMP DP  RH WIND       PRES   REMARKS
COLO. SPRINGS  MOCLDY    39  10  30 N14       29.76S
A. F. ACADEMY  FAIR      32   8  36 N9        29.77S WCI  25
SCHRIEVER AFB  FAIR      43   7  22 N14       29.76R
CHEYENNE MTN   MOCLDY    51   7  17 NW9       29.72F
ELLICOTT         N/A    N/A N/A N/A E13       29.74R
FALCON         FAIR      42   5  22 N8        29.80S
FORT CARSON    FAIR      38  13  36 N13       29.73S
LIMON          FAIR      30  14  51 NW7       29.76R WCI  23
MONUMENT HILL  FAIR      32  12  43 S5        29.82R WCI  27
CANON CITY     FAIR      45  10  24 W12       29.74R
WALSENBURG     FAIR      45   5  19 W12       29.75S
TRINIDAD       FAIR      27  12  53 NW8       29.76R WCI  19
$$

COZ042>045-048>051-090-091-161500-
...NORTHEAST COLORADO...

CITY           SKY/WX    TMP DP  RH WIND       PRES   REMARKS
GREELEY ARPT   FAIR      31  19  61 CALM      29.79R
AKRON          FAIR      46   6  19 NE8       29.77R
BURLINGTON     FAIR      24  10  55 NW7       29.74S WCI  16
WRAY           FAIR      27  12  54 W5        29.78R WCI  21
YUMA           FAIR      28  12  50 NW7       29.77R WCI  21
STERLING       FAIR      19  12  73 SW3       29.78R
HOLYOKE        FAIR      28  16  59 NW3       29.79R
FORT MORGAN    FAIR      29  13  50 N9        29.77R WCI  21
$$

COZ086-089-092>099-161500-
...SOUTHEAST COLORADO...

CITY           SKY/WX    TMP DP  RH WIND       PRES   REMARKS
PUEBLO         FAIR      23  12  62 W3        29.72S
LA JUNTA       FAIR      22  12  65 W7        29.72F WCI  13
LAMAR          FAIR      18  12  77 W3        29.72R
SPRINGFIELD      N/A     27  14  58 W10       29.70F WCI  17
$$




USA.gov is the U.S. government's official web portal to all federal, state and local government web resources and services.